www.pogodaiklimat.ru

Погода и климат >> Архив погоды >> Перу >> Tarapoto


ПОГОДА в Tarapoto

  • Прогноз погоды в Tarapoto
  • Монитор погоды в Tarapoto
  • Климат города

АРХИВ ПОГОДЫ в Tarapoto

Время (UTC), дата Ветер
(напр.,м/с)
 
Видим.   Явления Облачность Т
(С)
Тd
(С)
f
(%)
Тe
(С)
Тes
(С)
Комфортность P
(гПа)
Po
(гПа)
Тmin
(С)
Tmax
(С)
R
(мм)
R24
(мм)
S
(см)
21 18.06 Ю 2 10 км 3/3 600 м
[Cu hum]
+29.6 +18.9 53 +35 +38 очень
душно
1015.7 987.1
00 19.06 В 1 10 км 3/3 750 м
[Cu hum]
+23.7 +19.9 79 +29 +29 душно 1017.5 988.3 +31.0
12 19.06 штиль 0 1000 м дымка 10/10 120 м
[St]
+18.6 +18.4 99 +20 +20 1020.2 990.4 +17.5
15 19.06 З 1 10 км 3/3 450 м
[Cu hum]
+25.1 +20.2 74 +31 +41 очень
душно
1019.9 990.7
18 19.06 С 2 10 км 4/4 450 м
[Cu hum]
+30.8 +19.1 50 +36 +46 очень
душно
1016.4 987.8
21 19.06 Ю 2 10 км 4/4 600 м
[Cu hum]
+31.2 +18.5 47 +36 +39 очень
душно
1013.7 985.2
00 20.06 штиль 0 10 км 1/1 900 м
[Cu hum]
+25.7 +19.7 69 +31 +31 очень
душно
1014.7 985.7 +32.3
03 20.06 штиль 0 10 км 3/3 750 м
[Sc]
+21.7 +19.8 89 +27 +27 душно 1017.0 985.2
12 20.06 штиль 0 1000 м туман поземный 10/10 150 м
[St]
+19.0 +18.9 99 +21 +21 комфорт 1018.0 988.3 +18.1
15 20.06 штиль 0 10 км {туман} 9/4 750 м
[Cu hum Ac trans]
+26.0 +20.2 70 +32 +37 очень
душно
1018.2 989.2
18 20.06 З 2 10 км {туман} 4/4 600 м
[Cu hum]
+31.0 +19.6 51 +37 +47 очень
душно
1015.8 987.3
21 20.06 В 2 10 км 4/4 600 м
[Cu hum]
+31.9 +18.8 46 +37 +40 очень
душно
1012.6 984.2
00 21.06 Ю 2 10 км 3/3 600 м
[Sc]
+24.4 +20.8 80 +30 +30 очень
душно
1014.2 985.1 +32.5
03 21.06 ЮЗ 1 10 км 1/1 750 м
[Cu hum]
+21.0 +20.0 94 +27 +27 душно 1016.1 986.7
12 21.06 ЮВ 1 1000 м дымка 6/6 90 м
[St]
+19.1 +18.9 99 +22 +22 комфорт 1018.2 988.5 +17.6
15 21.06 З 2 10 км 3/3 450 м
[Cu hum]
+26.5 +20.5 70 +33 +42 очень
душно
1018.4 989.5
21 21.06 СВ 3 10 км 4/4 600 м
[Cu hum]
+32.0 +18.5 45 +37 +39 очень
душно
1012.0 983.0
00 22.06 штиль 0 10 км 1/1 900 м
[Cu hum]
+26.2 +19.9 68 +32 +32 очень
душно
1012.4 983.6 +33.7
03 22.06 штиль 0 10 км 3/3 600 м
[Sc]
+22.2 +19.6 85 +28 +28 душно 1015.3 986.0
12 22.06 штиль 0 10 км 4/4 600 м
[Cu hum]
+18.0 +17.8 99 +18 +19 1017.2 987.5 +17.1
15 22.06 штиль 0 10 км 4/4 750 м
[Cu hum]
+26.3 +20.5 70 +33 +42 очень
душно
1018.1 989.1
18 22.06 В 2 10 км 8/4 600 м
[Cu hum Ac trans]
+31.0 +20.8 55 +38 +44 очень
душно
1015.4 986.4
21 22.06 С 4 10 км 4/4 750 м
[Cu hum]
+30.1 +20.0 55 +37 +38 очень
душно
1011.2 982.7
00 23.06 штиль 0 10 км 3/3 750 м
[Sc]
+26.4 +20.0 68 +32 +32 очень
душно
1011.4 982.6 +33.0
12 23.06 штиль 0 10 км 4/4 450 м
[Cu hum]
+19.8 +19.2 96 +23 +23 комфорт 1015.0 985.5 +19.0
15 23.06 штиль 0 10 км 4/4 600 м
[Cu hum]
+25.6 +20.9 75 +32 +42 очень
душно
1015.7 986.7
18 23.06 ЮЗ 2 10 км 4/4 450 м
[Cu hum]
+30.6 +22.0 60 +39 +49 очень
душно
1012.2 983.8
21 23.06 ЮЗ 2 10 км 4/4 600 м
[Cu hum]
+32.9 +21.4 51 +41 +44 опасность
перегрева
1009.0 980.8
00 24.06 Ю 2 10 км 5/1 600 м
[Cu hum Ac trans]
+26.2 +21.5 75 +33 +33 очень
душно
1010.2 981.4 +33.7
12 24.06 В 1 10 км 8/4 300 м
[St Ac trans]
+20.5 +20.3 99 +26 +26 душно 1014.7 985.3 +19.7
15 24.06 ЮВ 2 10 км 4/4 600 м
[Cu hum]
+27.3 +21.5 71 +35 +43 очень
душно
1015.4 986.5
21 24.06 Ю 4 10 км 4/4 750 м
[Cu hum]
+31.5 +21.9 57 +40 +42 очень
душно
1009.2 980.8
00 25.06 штиль 0 10 км 4/4 750 м
[Cu hum]
+25.8 +22.4 82 +34 +34 очень
душно
1010.6 981.8 +32.7
12 25.06 штиль 0 10 км 8/4 600 м
[Cu hum Ac trans]
+22.5 +22.2 98 +30 +31 очень
душно
1014.2 985.0 +22.0 1
15 25.06 штиль 0 10 км 9/4 600 м
[Cu hum Ac trans]
+25.2 +22.9 87 +33 +38 очень
душно
1016.6 987.5
18 25.06 штиль 0 10 км 8/4 750 м
[Cu hum Ac trans]
+30.4 +23.0 65 +41 +48 опасность
перегрева
1013.5 984.9

 

Местоположение метеостанции Tarapoto (Перу): широта -6.50 долгота -76.36 высота над уровнем моря 282 м.

В архиве по умолчанию представлена погода в Tarapoto за последнюю неделю. Архивные данные за месяц целиком и за предыдущие месяцы, начиная с января 2011 года, Вы можете получить, выбрав интересующий диапазон дат из раскрывающегося списка и нажав кнопку "Ввод!".


*Определитесь, кто Вы:
робот инопланетянин человек

Внимание! Время в таблицах - всемирное. Для получения местного времени необходимо прибавить поправку, которая в Tarapoto равна -5 ч.

Смотрите также архив погоды в соседних городах и на ближайших метеорологических станциях:

Погода в Yurimaguas (Перу) (74 км)
Погода в Juanjui (Перу) (84 км)
Погода в Chachapoyas (Перу) (168 км)
Погода в Cajamarca (Перу) (242 км)
Погода в Pucallpa (Перу) (288 км)
Погода в Tingo Maria (Перу) (312 км)
Погода в Anta (Перу) (345 км)
Погода в Trujillo (Перу) (350 км)
Погода в Huanuco (Перу) (375 км)
Погода в Chimbote (Перу) (376 км)

Пояснения к столбцам:

Ветер - указаны скорость ветра в м/с - средняя за 10 мин, порывы в срок и между сроками (в фигурных скобках) и направление, откуда дует ветер: С - северный, СВ - северо-восточный, В - восточный, ЮВ - юго-восточный, Ю - южный, ЮЗ - юго-западный, З - западный, СЗ - северо-западный.
Видимость - горизонтальная дальность видимости в метрах или километрах. При видимости от 1 до 10 км при отсутствии осадков обычно наблюдается дымка, при ухудшении видимости до 1 км и менее - туман. В сухую погоду видимость может ухудшаться дымом, пылью или мглою.
Явления - указаны атмосферные явления, наблюдавшиеся в срок или в последний час перед сроком; фигурными скобками обозначены явления, наблюдавшиеся между сроками (за 1-3 часа до срока); квадратными скобками обозначены град или гололедные отложения с указанием их диаметра в мм.
Облачность - указаны через наклонную черту общая и нижняя облачность в баллах и высота нижней границы облаков в метрах; квадратными скобками обозначены формы облаков: Ci - перистые, Cs - перисто-слоистые, Cc - перисто-кучевые, Ac - высококучевые, As - высокослоистые, Sc - слоисто-кучевые, Ns - слоисто-дождевые, Cu - кучевые, Cb - кучево-дождевые. Подробнее классификацию облаков см. в Атласе облаков (PDF).
T - Температура воздуха - температура, измеренная на высоте 2 м над землей.
Td - Температура точки росы - температура, при понижении до которой содержащийся в воздухе водяной пар достигнет насыщения.
f - Относительная влажность воздуха - влажноcть воздуха, измеренная на высоте 2 м над землей.
Te - Эффективная температура - температура, которую ощущает одетый по сезону человек в тени. Характеристика душности погоды. При расчете учитывается влияние влажности воздуха и скорости ветра на теплоощущения человека.
Tes - Эффективная температура на солнце - температура, которую ощущает человек, с поправкой на солнечный нагрев. Характеристика знойности погоды. Зависит от высоты солнца над горизонтом, облачности и скорости ветра. Ночью, в пасмурную погоду, а также при ветре 12 м/с и более поправка равна нулю.
P - Атмосферное давление - приведенное к уровню моря атмосферное давление.
Po - Атмосферное давление - измеренное на уровне метеостанции атмосферное давление.
Tmin - Минимальная температура - минимум температуры воздуха на высоте 2 м над землей.
Tmax - Максимальная температура - максимум температуры воздуха на высоте 2 м над землей.
R - Количество осадков - Количество выпавших осадков за период времени, мм. При наведении курсора мыши на число - период времени, за который выпало указанное количество осадков.
R24 - Количество осадков - Количество выпавших осадков за 24 часа, мм.
S - Снежный покров - Высота снежного покрова, см. При наведении курсора мыши на число - состояние снежного покрова и степень покрытия местности в баллах.